This is the latest recevied weather packets stored in our database for station/object KB0RPJ. If no packets are shown the sender has not sent any weather packets the latest 10 day(s).
| Time | Temp. | Humidity | Pressure | Rain* | Wind** | Luminosity | Snow |
|---|---|---|---|---|---|---|---|
| 1777657505 | 15.56° C | 39% | 1017.1 hPa | 0 mm | - | 957 W/m² | - |
| 1777657205 | 15.56° C | 42% | 1017.3 hPa | 0 mm | - | 972 W/m² | - |
| 1777656905 | 15.56° C | 41% | 1017.5 hPa | 0 mm | - | 874 W/m² | - |
| 1777656620 | 15.56° C | 40% | 1017.4 hPa | 0 mm | - | 976 W/m² | - |
| 1777656305 | 15.56° C | 43% | 1017.5 hPa | 0 mm | - | 985 W/m² | - |
| 1777656006 | 15.56° C | 43% | 1017.5 hPa | 0 mm | - | 429 W/m² | - |
| 1777655705 | 15.56° C | 44% | 1017.5 hPa | 0 mm | - | 942 W/m² | - |
| 1777655405 | 15.56° C | 48% | 1017.5 hPa | 0 mm | - | 905 W/m² | - |
| 1777655116 | 15° C | 44% | 1017.5 hPa | 0 mm | - | 918 W/m² | - |
| 1777654805 | 15° C | 46% | 1017.7 hPa | 0 mm | - | 886 W/m² | - |
| 1777654511 | 14.44° C | 45% | 1017.7 hPa | 0 mm | - | 875 W/m² | - |
| 1777654207 | 15° C | 45% | 1017.8 hPa | 0 mm | - | 873 W/m² | - |
| 1777653904 | 14.44° C | 45% | 1017.7 hPa | 0 mm | - | 857 W/m² | - |
| 1777653605 | 14.44° C | 46% | 1017.8 hPa | 0 mm | - | 848 W/m² | - |
| 1777653305 | 14.44° C | 45% | 1017.8 hPa | 0 mm | - | 835 W/m² | - |
| 1777653005 | 14.44° C | 45% | 1017.8 hPa | 0 mm | - | 827 W/m² | - |
| 1777652705 | 13.89° C | 48% | 1017.8 hPa | 0 mm | - | 810 W/m² | - |
| 1777652405 | 13.89° C | 46% | 1017.8 hPa | 0 mm | - | 802 W/m² | - |
| 1777652105 | 13.89° C | 43% | 1018 hPa | 0 mm | - | 796 W/m² | - |
| 1777651805 | 13.89° C | 47% | 1018 hPa | 0 mm | - | 784 W/m² | - |
| 1777651505 | 13.89° C | 45% | 1018.1 hPa | 0 mm | - | 781 W/m² | - |
| 1777651204 | 13.89° C | 45% | 1018 hPa | 0 mm | - | 756 W/m² | - |
| 1777650905 | 13.89° C | 47% | 1018 hPa | 0 mm | - | 782 W/m² | - |
| 1777650605 | 13.33° C | 51% | 1017.9 hPa | 0 mm | - | 854 W/m² | - |
| 1777650305 | 13.33° C | 48% | 1018 hPa | 0 mm | - | 748 W/m² | - |
* Rain latest hour (hover to see other rain measurements)
** Current wind speed in m/s (hover to see current wind gust speed)